HG5PBP-13 Weather Reports


time (UTC)temp
F
wind
direction
speed
knots
gust
knots
rain 1hr
in
rain 24hr
in
rain mn
in
humidity
%
barometer
mb
20260905235808 64 271 3.5 7.0 0.00 0.00 0.00 6 1020.0
20260905235308 64 296 1.7 7.8 0.00 0.00 0.00 6 1020.1
20260905234808 64 330 7.0 9.6 0.00 0.00 0.00 6 1020.1
20260905234308 64 272 1.7 5.2 0.00 0.00 0.00 6 1019.9
20260905233808 64 239 3.5 5.2 0.00 0.00 0.00 6 1019.8
20260905233308 64 265 5.2 8.7 0.00 0.00 0.00 6 1019.8
20260905232808 64 270 1.7 3.5 0.00 0.00 0.00 6 1019.8
20260905232308 64 243 5.2 7.8 0.00 0.00 0.00 6 1019.9
20260905231808 64 270 4.3 8.7 0.00 0.00 0.00 6 1019.9
20260905231307 64 260 1.7 4.3 0.00 0.00 0.00 6 1020.2
20260905230808 64 287 1.7 8.7 0.00 0.00 0.00 6 1019.8
20260905230307 64 286 1.7 8.7 0.00 0.00 0.00 6 1019.9
20260905225807 64 279 3.5 9.6 0.00 0.00 0.00 6 1019.8
20260905225307 64 251 1.7 9.6 0.00 0.00 0.00 6 1019.9
20260905224807 64 227 2.6 7.8 0.00 0.00 0.00 6 1019.7
20260905224307 64 267 3.5 8.7 0.00 0.00 0.00 6 1019.8
20260905223807 64 278 1.7 9.6 0.00 0.00 0.00 6 1019.7
20260905223307 65 272 5.2 7.8 0.00 0.00 0.00 6 1020.0
20260905222807 65 275 4.3 7.8 0.00 0.00 0.00 6 1020.0
20260905222307 65 329 3.5 10.4 0.00 0.00 0.00 6 1019.7
20260905221807 65 283 5.2 8.7 0.00 0.01 0.00 6 1020.0
20260905221307 64 12 3.5 5.2 0.00 0.01 0.00 6 1020.0
20260905220807 64 287 1.7 7.0 0.00 0.01 0.00 6 1019.8
20260905220307 64 261 2.6 5.2 0.00 0.01 0.00 6 1019.8
20260905215807 64 281 2.6 5.2 0.00 0.01 0.01 6 1020.0
20260905215307 64 273 2.6 4.3 0.00 0.01 0.01 6 1020.0
20260905214807 64 283 1.7 5.2 0.00 0.01 0.01 6 1019.7
20260905214307 64 292 2.6 3.5 0.00 0.01 0.01 6 1019.9
20260905213807 64 267 1.7 2.6 0.00 0.01 0.01 5 1019.7
20260905213307 64 258 3.5 7.8 0.00 0.01 0.01 5 1019.6
20260905212807 64 261 3.5 7.0 0.00 0.01 0.01 5 1019.6
20260905212307 64 309 3.5 7.0 0.00 0.01 0.01 5 1019.4
20260905211807 65 263 1.7 4.3 0.00 0.01 0.01 5 1019.7
20260905211307 65 249 1.7 4.3 0.00 0.01 0.01 5 1019.3
20260905210807 65 285 3.5 5.2 0.00 0.01 0.01 5 1019.4
20260905210307 65 306 0.9 5.2 0.00 0.01 0.01 5 1019.2
20260905205807 66 272 1.7 4.3 0.00 0.01 0.01 5 1019.1
20260905205307 66 316 1.7 8.7 0.00 0.01 0.01 5 1019.3
20260905204807 66 279 2.6 7.0 0.00 0.01 0.01 5 1019.3
20260905204307 66 312 2.6 9.6 0.00 0.01 0.01 5 1019.5
20260905203806 66 268 1.7 8.7 0.00 0.01 0.01 5 1019.3
20260905203306 66 308 3.5 11.3 0.00 0.01 0.01 5 1019.0
20260905202306 66 298 2.6 7.0 0.00 0.01 0.01 5 1019.1
20260905201806 66 1 5.2 10.4 0.00 0.01 0.01 5 1019.0
20260905201306 66 296 4.3 9.6 0.00 0.01 0.01 5 1019.1
20260905200806 66 333 6.1 13.0 0.00 0.01 0.01 6 1018.8
20260905200306 66 307 6.1 10.4 0.00 0.01 0.01 6 1019.0
20260905195806 66 309 5.2 10.4 0.00 0.01 0.01 6 1018.9
20260905195307 66 280 3.5 7.8 0.00 0.01 0.01 6 1018.8
20260905194806 66 313 2.6 5.2 0.00 0.01 0.01 6 1018.6
20260905194306 66 309 3.5 9.6 0.00 0.01 0.01 6 1018.7
20260905193806 66 268 1.7 7.0 0.00 0.01 0.01 6 1018.4
20260905193306 66 231 6.1 9.6 0.00 0.01 0.01 6 1018.6
20260905192806 66 318 5.2 10.4 0.00 0.01 0.01 6 1018.5
20260905192306 66 317 1.7 7.0 0.00 0.01 0.01 6 1018.5
20260905191806 66 293 4.3 11.3 0.00 0.01 0.01 6 1018.3
20260905191306 66 301 3.5 7.0 0.00 0.01 0.01 6 1018.5
20260905190806 66 279 2.6 5.2 0.00 0.01 0.01 6 1018.4
20260905190306 66 276 3.5 7.0 0.00 0.01 0.01 6 1018.3
20260905185806 66 0 3.5 4.3 0.00 0.01 0.01 6 1018.2
20260905185306 66 251 1.7 11.3 0.00 0.01 0.01 6 1018.4
20260905184806 66 271 1.7 7.0 0.00 0.01 0.01 6 1018.3
20260905184306 66 266 1.7 7.0 0.00 0.01 0.01 6 1018.4
20260905183806 66 273 1.7 7.8 0.00 0.01 0.01 6 1018.2
20260905183306 66 323 3.5 7.8 0.00 0.01 0.01 5 1018.1
20260905182806 66 255 2.6 5.2 0.00 0.01 0.01 5 1017.8
20260905182306 66 315 2.6 4.3 0.00 0.01 0.01 5 1017.9
20260905181806 66 317 1.7 7.0 0.00 0.01 0.01 5 1017.9
20260905181305 66 262 0.9 7.0 0.00 0.01 0.01 5 1017.8
20260905180805 66 33 1.7 3.5 0.00 0.01 0.01 5 1017.7
20260905180305 66 322 2.6 4.3 0.00 0.01 0.01 5 1017.8
20260905175806 66 316 4.3 5.2 0.00 0.01 0.01 5 1017.8
20260905175306 66 283 3.5 7.0 0.00 0.01 0.01 5 1017.6
20260905174805 66 312 1.7 7.0 0.00 0.01 0.01 5 1017.4
20260905174305 66 304 4.3 7.0 0.00 0.01 0.01 5 1017.3
20260905173805 67 292 2.6 4.3 0.00 0.01 0.01 5 1017.3
20260905173305 67 86 3.5 4.3 0.00 0.01 0.01 5 1017.3
20260905172805 67 355 3.5 7.0 0.00 0.01 0.01 5 1017.2
20260905172305 67 295 0.9 2.6 0.00 0.01 0.01 5 1017.0
20260905171805 67 266 1.7 4.3 0.00 0.01 0.01 5 1017.2
20260905171305 68 284 1.7 3.5 0.00 0.01 0.01 5 1017.0
20260905170805 68 279 1.7 2.6 0.00 0.01 0.01 5 1017.3
20260905170305 68 269 0.9 4.3 0.00 0.01 0.01 5 1017.4
20260905165805 68 286 1.7 4.3 0.00 0.01 0.01 5 1016.9
20260905165306 68 333 2.6 5.2 0.00 0.01 0.01 5 1016.9
20260905164805 68 308 1.7 4.3 0.00 0.01 0.01 5 1016.8
20260905164305 69 264 1.7 3.5 0.00 0.01 0.01 5 1016.7
20260905163805 69 2 1.7 2.6 0.00 0.01 0.01 5 1016.7
20260905163305 69 229 2.6 4.3 0.00 0.01 0.01 5 1016.6
20260905162805 69 291 3.5 5.2 0.00 0.01 0.01 5 1016.6
20260905162306 69 258 2.6 7.0 0.00 0.01 0.01 5 1016.6
20260905161805 69 239 1.7 3.5 0.00 0.01 0.01 5 1016.6
20260905161305 69 295 0.9 4.3 0.00 0.01 0.01 5 1017.0
20260905160805 69 359 1.7 5.2 0.00 0.01 0.01 5 1016.7
20260905160305 69 326 5.2 7.0 0.00 0.01 0.01 5 1016.6
20260905155805 69 276 1.7 5.2 0.00 0.01 0.01 5 1016.8
20260905155306 69 318 2.6 7.0 0.00 0.01 0.01 5 1016.7
20260905154805 70 290 0.9 5.2 0.00 0.01 0.01 5 1016.5
20260905154305 70 8 3.5 7.8 0.00 0.01 0.01 5 1016.5
20260905153805 70 268 2.6 7.8 0.00 0.01 0.01 5 1016.6
20260905153305 70 316 3.5 5.2 0.00 0.01 0.01 5 1016.5
20260905152804 70 282 1.7 7.0 0.00 0.01 0.01 5 1016.4
20260905152306 70 318 1.7 5.2 0.00 0.01 0.01 5 1016.5
20260905151805 70 247 2.6 7.0 0.00 0.01 0.01 5 1016.8
20260905151304 70 63 1.7 5.2 0.00 0.01 0.01 5 1016.6
20260905150804 70 352 3.5 7.0 0.00 0.01 0.01 5 1016.3
20260905150304 69 85 1.7 2.6 0.00 0.01 0.01 5 1016.6
20260905145804 69 358 5.2 8.7 0.00 0.01 0.01 4 1016.5
20260905145306 70 356 2.6 9.6 0.00 0.01 0.01 5 1016.6
20260905144804 70 57 1.7 5.2 0.00 0.01 0.01 5 1016.5
20260905144304 70 306 2.6 7.8 0.00 0.01 0.01 4 1016.4
20260905143804 70 258 0.9 8.7 0.00 0.01 0.01 4 1016.4
20260905143304 71 1 7.0 9.6 0.00 0.01 0.01 4 1016.2
20260905142804 71 322 7.8 14.8 0.00 0.01 0.01 4 1016.1
20260905142306 71 242 0.9 4.3 0.00 0.01 0.01 4 1016.2
20260905141804 71 320 1.7 4.3 0.00 0.01 0.01 4 1016.3
20260905141304 71 3 5.2 8.7 0.00 0.01 0.01 4 1016.2
20260905140804 72 81 3.5 7.8 0.00 0.01 0.01 4 1016.3
20260905140304 72 42 3.5 7.8 0.00 0.01 0.01 4 1016.5
20260905135804 72 261 2.6 4.3 0.00 0.01 0.01 4 1016.4
20260905135306 72 162 2.6 8.7 0.00 0.01 0.01 4 1016.1
20260905134804 72 350 3.5 5.2 0.00 0.01 0.01 4 1016.1
20260905134304 72 218 1.7 8.7 0.00 0.01 0.01 4 1016.0
20260905133804 73 344 5.2 11.3 0.00 0.01 0.01 4 1016.1
20260905133304 73 261 3.5 4.3 0.00 0.01 0.01 4 1016.0
20260905132804 73 4 1.7 7.0 0.00 0.01 0.01 4 1016.0
20260905132305 72 315 5.2 7.8 0.00 0.01 0.01 4 1015.9
20260905131804 72 26 0.9 3.5 0.00 0.01 0.01 4 1015.9
20260905131304 72 329 3.5 8.7 0.00 0.01 0.01 4 1015.8
20260905130804 71 272 4.3 9.6 0.00 0.01 0.01 4 1016.1
20260905130303 71 326 7.0 8.7 0.00 0.01 0.01 4 1016.2
20260905125803 71 343 4.3 8.7 0.00 0.01 0.01 4 1015.9
20260905125306 71 323 4.3 7.0 0.00 0.01 0.01 5 1015.9
20260905124803 70 102 0.9 5.2 0.00 0.01 0.01 5 1016.2
20260905124303 69 45 3.5 7.8 0.00 0.01 0.01 5 1016.4
20260905123803 69 349 3.5 13.0 0.00 0.01 0.01 5 1016.6
20260905123303 69 221 3.5 7.8 0.00 0.01 0.01 5 1016.3
20260905122803 69 297 4.3 8.7 0.00 0.01 0.01 5 1016.5
20260905122306 69 318 6.1 8.7 0.00 0.01 0.01 5 1016.6
20260905121803 69 57 5.2 11.3 0.00 0.01 0.01 5 1016.3
20260905121303 69 277 4.3 10.4 0.00 0.01 0.01 5 1016.5
20260905120804 69 343 5.2 13.0 0.00 0.01 0.01 5 1016.4
20260905120303 68 342 3.5 12.2 0.00 0.01 0.01 6 1016.4
20260905115803 67 17 2.6 4.3 0.01 0.01 0.01 6 1016.6
20260905115306 66 332 2.6 9.6 0.01 0.01 0.01 6 1016.7
20260905114803 64 288 6.1 7.8 0.01 0.01 0.01 6 1016.7
20260905114303 63 306 5.2 9.6 0.01 0.01 0.01 6 1017.2
20260905113803 63 296 4.3 8.7 0.01 0.01 0.01 6 1017.1
20260905113303 62 338 3.5 7.8 0.01 0.01 0.01 6 1017.3
20260905112803 62 1 5.2 7.0 0.01 0.01 0.01 6 1017.3
20260905112305 62 279 0.9 5.2 0.01 0.01 0.01 6 1017.3
20260905111803 62 350 3.5 5.2 0.01 0.01 0.01 6 1017.0
20260905111303 63 276 3.5 4.3 0.01 0.01 0.01 6 1016.8
20260905110803 64 346 1.7 3.5 0.01 0.01 0.01 6 1017.1
20260905110303 66 271 2.6 9.6 0.00 0.00 0.00 5 1016.8
20260905105803 67 307 5.2 10.4 0.00 0.00 0.00 5 1016.7
20260905105306 68 328 1.7 7.0 0.00 0.00 0.00 5 1016.5
20260905104803 68 332 1.7 3.5 0.00 0.00 0.00 5 1016.6
20260905104302 69 340 7.0 9.6 0.00 0.00 0.00 4 1016.2
20260905103803 69 359 4.3 15.6 0.00 0.00 0.00 4 1016.2
20260905103303 70 326 7.8 9.6 0.00 0.00 0.00 4 1016.0
20260905102803 70 329 4.3 7.0 0.00 0.00 0.00 4 1016.2
20260905102306 70 296 9.6 14.8 0.00 0.00 0.00 4 1016.1
20260905101802 70 260 7.0 12.2 0.00 0.00 0.00 4 1016.3
20260905101302 70 340 7.0 10.4 0.00 0.00 0.00 4 1016.1
20260905100802 71 356 2.6 15.6 0.00 0.00 0.00 4 1016.3
20260905100302 71 301 4.3 7.8 0.00 0.00 0.00 4 1016.2
20260905095802 71 30 7.0 21.7 0.00 0.00 0.00 4 1016.1
20260905095305 72 281 3.5 9.6 0.00 0.00 0.00 4 1016.4
20260905094802 71 323 8.7 12.2 0.00 0.00 0.00 4 1016.4
20260905094302 70 304 3.5 8.7 0.00 0.00 0.00 5 1016.4
20260905093802 69 9 3.5 14.8 0.00 0.00 0.00 5 1016.4
20260905093302 69 356 7.0 10.4 0.00 0.00 0.00 5 1016.7
20260905092802 69 332 7.0 9.6 0.00 0.00 0.00 5 1016.8
20260905092305 69 340 4.3 10.4 0.00 0.00 0.00 5 1016.5
20260905091802 69 221 4.3 12.2 0.00 0.00 0.00 5 1016.6
20260905091302 70 0 6.1 12.2 0.00 0.00 0.00 5 1016.6
20260905090802 70 344 7.0 13.0 0.00 0.00 0.00 5 1016.5
20260905090302 71 338 3.5 10.4 0.00 0.00 0.00 5 1016.3
20260905085802 71 341 3.5 9.6 0.00 0.00 0.00 5 1016.6
20260905085305 71 32 7.8 15.6 0.00 0.00 0.00 5 1016.1
20260905084802 70 317 5.2 8.7 0.00 0.00 0.00 5 1016.3
20260905084302 70 354 11.3 16.5 0.00 0.00 0.00 5 1016.2
20260905083802 69 7 7.0 13.0 0.00 0.00 0.00 5 1016.4
20260905083302 69 331 9.6 23.5 0.00 0.00 0.00 5 1016.1
20260905082802 69 237 12.2 21.7 0.00 0.00 0.00 6 1015.9
20260905082306 69 34 8.7 22.6 0.00 0.00 0.00 5 1015.7
20260905081802 70 327 3.5 17.4 0.00 0.00 0.00 5 1015.5
20260905081302 70 56 8.7 21.7 0.00 0.00 0.00 5 1015.5
20260905080801 70 23 6.1 17.4 0.00 0.00 0.00 5 1015.5
20260905080302 70 349 6.1 22.6 0.00 0.00 0.00 5 1015.4
20260905075801 70 22 3.5 18.2 0.00 0.00 0.00 5 1015.2
20260905075305 69 283 5.2 12.2 0.00 0.00 0.00 6 1015.0
20260905074801 70 4 6.1 19.1 0.00 0.00 0.00 6 1014.8
20260905074301 70 351 3.5 7.8 0.00 0.00 0.00 5 1014.9
20260905073801 70 299 0.9 14.8 0.00 0.00 0.00 5 1015.0
20260905073301 70 281 5.2 8.7 0.00 0.00 0.00 5 1014.0
20260905072801 71 344 10.4 13.0 0.00 0.00 0.00 5 1014.3
20260905072305 71 301 6.1 14.8 0.00 0.00 0.00 5 1014.0
20260905071801 71 300 8.7 16.5 0.00 0.00 0.00 5 1014.0
20260905071301 72 303 7.0 21.7 0.00 0.00 0.00 5 1013.6
20260905070801 73 322 8.7 16.5 0.00 0.00 0.00 5 1013.2
20260905070301 73 262 5.2 7.8 0.00 0.00 0.00 5 1013.6
20260905065801 74 276 5.2 12.2 0.00 0.00 0.00 5 1013.3
20260905065301 74 356 7.0 12.2 0.00 0.00 0.00 5 1012.9
20260905064801 74 332 6.1 12.2 0.00 0.00 0.00 5 1012.9
20260905064301 75 308 4.3 13.0 0.00 0.00 0.00 5 1012.8
20260905063801 75 351 8.7 10.4 0.00 0.00 0.00 5 1012.7
20260905063301 75 328 6.1 12.2 0.00 0.00 0.00 5 1012.6
20260905062801 75 278 3.5 14.8 0.00 0.00 0.00 5 1012.4
20260905062301 75 276 5.2 8.7 0.00 0.00 0.00 5 1012.5
20260905061801 76 10 6.1 12.2 0.00 0.00 0.00 5 1012.3
20260905061301 76 336 5.2 10.4 0.00 0.00 0.00 5 1012.1
20260905060801 76 262 1.7 7.0 0.00 0.00 0.00 4 1012.0
20260905060301 76 283 0.9 4.3 0.00 0.00 0.00 4 1012.0
20260905055801 76 291 0.9 4.3 0.00 0.00 0.00 4 1012.0
20260905055301 77 248 4.3 8.7 0.00 0.00 0.00 4 1011.8
20260905054801 76 310 2.6 7.8 0.00 0.00 0.00 4 1012.0
20260905054301 76 309 1.7 7.0 0.00 0.00 0.00 4 1011.8
20260905053801 76 332 3.5 8.7 0.00 0.00 0.00 4 1011.8
20260905053301 75 227 2.6 3.5 0.00 0.00 0.00 4 1012.0
20260905052801 76 258 2.6 4.3 0.00 0.00 0.00 4 1011.6
20260905052300 76 269 5.2 7.0 0.00 0.00 0.00 4 1011.5
20260905051800 76 282 0.9 4.3 0.00 0.00 0.00 4 1011.6
20260905051300 76 305 1.7 4.3 0.00 0.00 0.00 4 1011.5
20260905050800 76 260 1.7 4.3 0.00 0.00 0.00 4 1011.6
20260905050300 76 284 4.3 5.2 0.00 0.00 0.00 4 1011.6
20260905045800 75 272 2.6 4.3 0.00 0.00 0.00 4 1011.4
20260905045300 75 313 1.7 4.3 0.00 0.00 0.00 4 1011.3
20260905044800 75 270 3.5 4.3 0.00 0.00 0.00 4 1011.3
20260905044300 75 313 2.6 4.3 0.00 0.00 0.00 4 1011.2
20260905043800 75 292 3.5 7.8 0.00 0.00 0.00 4 1011.2
20260905043300 75 305 2.6 5.2 0.00 0.00 0.00 4 1011.2
20260905042800 75 345 3.5 10.4 0.00 0.00 0.00 4 1011.2
20260905042300 75 308 1.7 5.2 0.00 0.00 0.00 4 1011.2
20260905041800 75 7 6.1 11.3 0.00 0.00 0.00 4 1011.3
20260905041300 75 2 2.6 9.6 0.00 0.00 0.00 4 1011.1
20260905040800 75 344 2.6 11.3 0.00 0.00 0.00 4 1011.0
20260905040300 75 24 3.5 5.2 0.00 0.00 0.00 4 1011.0
20260905035800 75 330 3.5 8.7 0.00 0.00 0.00 4 1011.1
20260905035300 75 328 3.5 7.8 0.00 0.00 0.00 4 1010.8
20260905034800 75 119 6.1 13.0 0.00 0.00 0.00 5 1010.9
20260905034300 74 248 4.3 11.3 0.00 0.00 0.00 5 1011.0
20260905033800 74 266 5.2 9.6 0.00 0.00 0.00 5 1010.8
20260905033300 74 292 2.6 8.7 0.00 0.00 0.00 5 1010.8
20260905032800 74 295 1.7 11.3 0.00 0.00 0.00 5 1010.8
20260905032300 73 248 3.5 7.8 0.00 0.00 0.00 5 1011.1
20260905031800 73 325 4.3 8.7 0.00 0.00 0.00 5 1011.1
20260905031300 73 323 3.5 7.8 0.00 0.00 0.00 5 1011.3
20260905030800 73 235 3.5 7.0 0.00 0.00 0.00 5 1011.2
20260905030300 73 289 3.5 7.8 0.00 0.00 0.00 5 1011.2
20260905025800 73 288 6.1 10.4 0.00 0.00 0.00 5 1011.3
20260905025259 73 267 3.5 7.0 0.00 0.00 0.00 5 1011.1
20260905024759 73 251 3.5 7.8 0.00 0.00 0.00 5 1011.0
20260905024300 73 284 3.5 7.0 0.00 0.00 0.00 5 1011.2
20260905023759 74 274 3.5 7.8 0.00 0.00 0.00 5 1011.3
20260905023259 74 333 5.2 10.4 0.00 0.00 0.00 5 1011.1
20260905022759 74 273 2.6 7.0 0.00 0.00 0.00 5 1011.0
20260905022259 74 336 3.5 8.7 0.00 0.00 0.00 5 1011.1
20260905021759 74 296 3.5 9.6 0.00 0.00 0.00 5 1011.2
20260905021259 73 283 4.3 9.6 0.00 0.00 0.00 5 1011.4
20260905020759 73 258 5.2 12.2 0.00 0.00 0.00 5 1011.1
20260905020259 73 268 4.3 7.8 0.00 0.00 0.00 5 1011.3
20260905015759 73 271 5.2 10.4 0.00 0.00 0.00 5 1011.4
20260905015259 73 283 6.1 12.2 0.00 0.00 0.00 5 1011.3
20260905014759 73 259 2.6 7.8 0.00 0.00 0.00 5 1011.3
20260905014259 73 255 6.1 8.7 0.00 0.00 0.00 5 1011.3
20260905013759 73 257 2.6 9.6 0.00 0.00 0.00 5 1010.9
20260905013259 73 311 5.2 9.6 0.00 0.00 0.00 5 1010.9
20260905012759 73 264 3.5 9.6 0.00 0.00 0.00 5 1011.1
20260905012259 73 307 5.2 8.7 0.00 0.00 0.00 5 1010.9
20260905011759 73 300 5.2 9.6 0.00 0.00 0.00 5 1011.1
20260905011259 73 276 4.3 7.8 0.00 0.00 0.00 5 1010.8
20260905010759 73 243 4.3 7.8 0.00 0.00 0.00 5 1010.9
20260905010259 72 248 5.2 10.4 0.00 0.00 0.00 5 1011.0
20260905005759 72 278 7.8 12.2 0.00 0.00 0.00 5 1010.9
20260905005259 72 291 4.3 11.3 0.00 0.00 0.00 5 1010.8
20260905004759 72 296 6.1 8.7 0.00 0.00 0.00 5 1010.8
20260905004259 72 311 5.2 9.6 0.00 0.00 0.00 5 1010.9
20260905003759 72 289 5.2 15.6 0.00 0.00 0.00 5 1010.8
20260905003259 72 265 7.8 10.4 0.00 0.00 0.00 5 1010.7
20260905002759 73 307 3.5 12.2 0.00 0.00 0.00 5 1010.6
20260905002258 73 286 7.0 11.3 0.00 0.00 0.00 5 1010.6
20260905001758 73 256 2.6 7.0 0.00 0.00 0.00 5 1010.8
20260905001259 73 245 3.5 11.3 0.00 0.00 0.00 5 1010.9
20260905000758 73 261 3.5 13.0 0.00 0.00 0.00 5 1011.1
20260905000258 73 277 7.0 12.2 0.00 0.00 0.00 5 1011.0